IMS-1

Track IMS-1 now!
10-day predictions
IMS-1 is classified as:


NORAD ID: 32786
Int'l Code: 2008-021D
Perigee: 617.7 km
Apogee: 633.1 km
Inclination: 97.7 °
Period: 97.1 minutes
Semi major axis: 6996 km
RCS: 0.5386 m2 (medium)
Launch date: April 28, 2008
Source: India (IND)

IMS-1 is a small spacecraft featuring two medium- and low-resolution cameras to gather photos of locations around the world. Data from the 183-pound [83-kg] satellite's technology demonstration systems and cameras will be made available to developing nations.
Your satellite tracking list
Your tracking list is empty





NASA's NSSDC Master Catalog

Two Line Element Set (TLE):
1 32786U 08021D   15125.78629689  .00001410  00000-0  17737-3 0  9990
2 32786 097.6602 162.7791 0010968 231.3859 128.6340 14.83517968379348

Source of the keplerian elements: AFSPC

N2YO: 3003